Hourly Data Report for October 31, 2013

All times are specified in Local Standard Time (LST). Add 1 hour to adjust for Daylight Saving Time where and when it is observed.

TORONTO INTL A
ONTARIO

43°40'36.000" N
79°37'50.000" W
173.40 m
6158731
71624
YYZ

Download Data

Hourly Data (October 2013)
Hourly Data Report for October 31, 2013
Temp Definition
°C
Dew Point Temp Definition
°C
Rel Hum Definition
%
Wind Dir Definition
10's deg

Wind Spd Definition
km/h
Visibility Definition
km
Stn Press Definition
kPa
Hmdx Definition


Wind Chill Definition


Weather Definition


TIME
00:00 Legend Double Dagger 6.0 4.5 90 3 6 24.1 99.67     LegendNANA
01:00 Legend Double Dagger 5.4 4.2 92 1 4 24.1 99.59     Mostly Cloudy
02:00 Legend Double Dagger 6.5 5.3 92 6 9 24.1 99.41     LegendNANA
03:00 Legend Double Dagger 7.0 5.3 89 31 1 19.3 99.34     Rain Showers
04:00 Legend Double Dagger 7.1 5.9 92 8 5 16.1 99.23     Rain Showers
05:00 Legend Double Dagger 7.1 6.4 95 11 8 16.1 99.11     Rain Showers
06:00 Legend Double Dagger 7.6 7.0 96 12 8 12.9 98.97     Rain
07:00 Legend Double Dagger 8.9 8.3 96 12 11 4.0 98.89     Rain,Fog
08:00 Legend Double Dagger 9.7 9.3 97 15 8 4.0 98.84     Rain,Fog
09:00 Legend Double Dagger 10.2 9.8 97 15 10 2.4 98.72     Rain,Fog
10:00 Legend Double Dagger 11.6 11.1 97 18 14 4.0 98.65     Rain,Fog
11:00 Legend Double Dagger 13.8 13.0 95 18 13 8.1 98.54     Fog
12:00 Legend Double Dagger 16.3 14.5 89 20 24 8.1 98.44     Rain,Fog
13:00 Legend Double Dagger 17.2 14.3 83 21 17 12.9 98.32     Rain
14:00 Legend Double Dagger 17.4 13.8 79 20 22 16.1 98.22     Rain
15:00 Legend Double Dagger 17.6 13.6 77 21 30 16.1 98.16     LegendNANA
16:00 Legend Double Dagger 16.6 13.4 81 21 23 16.1 98.11     Rain
17:00 Legend Double Dagger 16.8 13.2 79 20 28 16.1 97.99     Rain
18:00 Legend Double Dagger 15.4 12.9 85 21 33 19.3 97.90     Rain
19:00 Legend Double Dagger 14.6 12.8 89 19 24 19.3 97.80     Rain
20:00 Legend Double Dagger 13.9 12.8 93 17 26 9.7 97.61     Rain,Fog
21:00 Legend Double Dagger 13.8 12.9 94 18 26 9.7 97.42     Rain,Fog
22:00 Legend Double Dagger 13.6 12.8 95 18 15 9.7 97.24     Rain,Fog
23:00 Legend Double Dagger 15.3 13.9 91 20 28 9.7 97.06     Rain,Fog

Notes on Data Quality.

Legend

  • E = Estimated
  • M = Missing
  • NA = Not Available
  • ‡ = Partner data that is not subject to review by the National Climate Archives
Date modified: